Weather History for Kirksville, MO

Change the Weather History Date:

Tuesday, January 22, 2013

  Actual Average Record
Temperature  
Mean Temperature 12 °F 26 °F  
Max Temperature 17 °F 36 °F 69 °F (1967)
Min Temperature 6 °F 17 °F -20 °F (1930)
Degree Days  
Heating Degree Days 53 39  
Month to date heating degree days 829 858  
Since 1 July heating degree days 3071 3201  
Cooling Degree Days 0 0  
Month to date cooling degree days 0 0  
Year to date cooling degree days 0 0  
Moisture  
Dew Point 1 °F    
Average Humidity 60    
Maximum Humidity 70    
Minimum Humidity 49    
Precipitation  
Precipitation T in 0.04 in 1.68 in (1929)
Month to date precipitation 0.29 0.76  
Year to date precipitation 0.29 0.76  
Sea Level Pressure  
Sea Level Pressure 30.44 in    
Wind  
Wind Speed 3 mph (NE)    
Max Wind Speed 9 mph    
Max Gust Speed 14 mph    
Visibility 10 miles    
Events Snow    
T = Trace of Precipitation, MM = Missing Value Source: NWS Daily Summary

Daily Weather History Graph

Daily Weather History Graph

Search for Another Location

Airport:

Trip Planner

Search our weather history database for the weather conditions in past years. The results will help you decide how hot, cold, wet, or windy it might be!

Date:

Astronomy

Jan. 22, 2013 Rise Set
Actual Time 7:26 AM CST 5:17 PM CST
Civil Twilight 6:57 AM CST 5:46 PM CST
Nautical Twilight 6:24 AM CST 6:19 PM CST
Astronomical Twilight 5:52 AM CST 6:52 PM CST
Moon 1:40 PM CST (1/22) 3:48 AM CST (1/22)
Length of Visible Light 10h 49m
Length of Day
9h 50m
Waxing Gibbous, 83% of the Moon is Illuminated
Jan 22
Waxing Gibbous
Jan 26
Full
Feb 3
Last Quarter
Feb 10
New
Feb 17
First Quarter

Hourly Weather History & Observations

Time (CST) Temp. Windchill Dew Point Humidity Pressure Visibility Wind Dir Wind Speed Gust Speed Precip Events Conditions
12:55 AM 10.0 °F 1.8 °F -0.9 °F 61% 30.43 in 10.0 mi NNW 4.6 mph - N/A   Clear
1:55 AM 10.0 °F -0.9 °F -0.9 °F 61% 30.44 in 10.0 mi NNW 6.9 mph - N/A   Mostly Cloudy
2:55 AM 9.0 °F -3.2 °F -2.9 °F 59% 30.46 in 10.0 mi NNW 8.1 mph - N/A   Scattered Clouds
3:55 AM 8.1 °F -0.5 °F -2.0 °F 64% 30.45 in 10.0 mi NNE 4.6 mph - N/A   Overcast
4:55 AM 7.0 °F -1.7 °F -2.0 °F 67% 30.45 in 10.0 mi North 4.6 mph - N/A   Mostly Cloudy
5:55 AM 8.1 °F 1.4 °F -2.0 °F 64% 30.45 in 10.0 mi Variable 3.5 mph - N/A   Overcast
6:55 AM 8.1 °F - -0.9 °F 67% 30.47 in 10.0 mi Calm Calm - N/A   Overcast
7:55 AM 8.1 °F 1.4 °F -0.9 °F 67% 30.47 in 10.0 mi NE 3.5 mph - N/A   Overcast
8:55 AM 9.0 °F - -0.9 °F 64% 30.49 in 10.0 mi Calm Calm - N/A   Overcast
9:55 AM 10.0 °F 3.6 °F -0.9 °F 61% 30.51 in 10.0 mi West 3.5 mph - N/A   Overcast
10:55 AM 10.0 °F - -0.9 °F 61% 30.52 in 9.0 mi Calm Calm - 0.00 in Snow Light Snow
11:55 AM 10.9 °F 4.7 °F 1.0 °F 64% 30.49 in 10.0 mi West 3.5 mph - 0.00 in   Overcast
12:55 PM 12.9 °F - 1.0 °F 59% 30.46 in 10.0 mi Calm Calm - N/A   Overcast
1:55 PM 15.1 °F - 1.0 °F 54% 30.43 in 10.0 mi Calm Calm - N/A   Overcast
2:55 PM 16.0 °F - 1.0 °F 52% 30.41 in 10.0 mi Calm Calm - N/A   Overcast
3:55 PM 16.0 °F - 1.9 °F 54% 30.40 in 10.0 mi Calm Calm - N/A   Overcast
4:55 PM 17.1 °F - 1.9 °F 52% 30.40 in 10.0 mi Calm Calm - N/A   Overcast
5:55 PM 16.0 °F 7.4 °F 1.9 °F 54% 30.38 in 10.0 mi East 5.8 mph - N/A   Overcast
6:55 PM 16.0 °F 8.8 °F 3.0 °F 57% 30.40 in 10.0 mi SE 4.6 mph - N/A   Overcast
7:55 PM 16.0 °F 8.8 °F 3.9 °F 59% 30.40 in 10.0 mi ESE 4.6 mph - N/A   Overcast
8:55 PM 14.0 °F 6.5 °F 5.0 °F 67% 30.40 in 10.0 mi SE 4.6 mph - N/A   Overcast
9:55 PM 14.0 °F - 5.0 °F 67% 30.41 in 10.0 mi Calm Calm - N/A   Clear
10:55 PM 12.0 °F 4.1 °F 5.0 °F 73% 30.40 in 10.0 mi East 4.6 mph - N/A   Clear
11:55 PM 10.0 °F 3.6 °F 6.1 °F 84% 30.39 in 10.0 mi SE 3.5 mph - N/A   Clear